[ hide orbit diagram ]
For accurate long-term ephemerides, please instead use our Horizons system.This orbit viewer was implemented using two-body methods, and hence should not be used for determining accurate long-term trajectories (over several years or decades) or planetary encounter circumstances.
Orbital Elements at Epoch 2459000.5 (2020-May-31.0) TDB
Reference: JPL 10 (heliocentric ecliptic J2000)
Element | Value | Uncertainty (1-sigma) | Units |
e | .04236977925885776 | 7.2232e-08 | |
a | 2.756388156266582 | 3.3045e-08 | au |
q | 2.639600598533837 | 2.1261e-07 | au |
i | 1.303933546280003 | 5.9895e-06 | deg |
node | 91.40840167885082 | 0.00039351 | deg |
peri | 208.2271778536526 | 0.00040498 | deg |
M | 252.3789432406217 | 9.6858e-05 | deg |
tp | 2459500.193546981382 (2021-Oct-12.69354698) | 0.00044921 | TDB |
period | 1671.510040228458 4.58 | 3.0058e-05 8.229e-08 | d yr |
n | .2153741176157075 | 3.873e-09 | deg/d |
Q | 2.873175713999327 | 3.4445e-08 | au |
|
| | Orbit Determination Parameters
Additional Information
|
[ show covariance matrix ]
Physical Parameter Table
Parameter |
Symbol |
Value |
Units |
Sigma |
Reference |
Notes |
absolute magnitude |
H |
16.8 |
|
n/a |
MPO380675 |
|
|
469239 (2016 JD10) Discovered 2004-Nov-10 by Spacewatch at Kitt Peak |
Reference: | Last Updated: 2016-06-21 |
|
Alternate Designations
2016 JD10 = 2004 VK83 = 2015 BP2 |
|
|